Photometre #546[NE_1.6] Izana AOT

File : 20190925_546.hum

25/09/2019,07:36:51,TEMP=11.4,BA=5.60,STAT.A=Abs.,ExtBa=13.80
25/09/2019,07:39:45,TEMP=11.9,BA=5.60,STAT.A=Abs.,ExtBa=13.60
25/09/2019,07:43:09,TEMP=12.1,BA=5.60,STAT.A=Abs.,ExtBa=13.40
25/09/2019,07:47:11,TEMP=12.3,BA=5.60,STAT.A=Abs.,ExtBa=13.20
25/09/2019,07:52:02,TEMP=12.6,BA=5.60,STAT.A=Abs.,ExtBa=13.40
25/09/2019,07:58:00,TEMP=12.9,BA=5.60,STAT.A=Abs.,ExtBa=13.40
25/09/2019,08:05:31,TEMP=13.4,BA=5.60,STAT.B=Abs.,ExtBa=13.50
25/09/2019,08:16:17,TEMP=14.6,BA=5.56,STAT.A=Abs.,ExtBa=12.80
25/09/2019,08:18:18,TEMP=14.8,BA=5.56,STAT.A=Abs.,ExtBa=12.90
25/09/2019,08:20:17,TEMP=14.9,BA=5.60,STAT.A=Abs.,ExtBa=12.90
25/09/2019,08:22:44,TEMP=14.8,BA=5.60,STAT.A=Abs.,ExtBa=12.90
25/09/2019,08:28:35,TEMP=14.7,BA=5.60,STAT.C=Abs.,ExtBa=13.10
25/09/2019,08:45:29,TEMP=16.1,BA=5.56,STAT.A=Abs.,ExtBa=12.80
25/09/2019,08:47:35,TEMP=16.3,BA=5.56,STAT.A=Abs.,ExtBa=12.90
25/09/2019,08:52:38,TEMP=16.0,BA=5.60,STAT.A=Abs.,ExtBa=13.00
25/09/2019,09:04:01,TEMP=16.6,BA=5.60,STAT.A=Abs.,ExtBa=13.30
25/09/2019,09:18:09,TEMP=17.4,BA=5.60,STAT.B=Abs.,ExtBa=13.40
25/09/2019,09:47:34,TEMP=18.3,BA=5.60,STAT.B=Abs.,ExtBa=13.40
25/09/2019,09:58:27,TEMP=19.1,BA=5.56,STAT.F,ExtBa=12.90
25/09/2019,10:15:19,TEMP=19.3,BA=5.56,STAT.D=Abs.,ExtBa=12.80
25/09/2019,10:28:25,TEMP=19.1,BA=5.60,STAT.D=Abs.,ExtBa=13.30
25/09/2019,10:43:25,TEMP=19.5,BA=5.60,STAT.D=Abs.,ExtBa=13.40
25/09/2019,10:58:27,TEMP=19.8,BA=5.60,STAT.F,ExtBa=13.40
25/09/2019,11:14:32,TEMP=20.4,BA=5.56,STAT.D=Abs.,ExtBa=12.80
25/09/2019,11:28:26,TEMP=19.8,BA=5.60,STAT.D=Abs.,ExtBa=13.30
25/09/2019,11:43:26,TEMP=20.2,BA=5.60,STAT.D=Abs.,ExtBa=13.40
25/09/2019,11:58:27,TEMP=19.8,BA=5.60,STAT.F,ExtBa=13.40
25/09/2019,12:13:26,TEMP=19.7,BA=5.60,STAT.D=Abs.,ExtBa=13.30
25/09/2019,12:28:26,TEMP=19.7,BA=5.60,STAT.D=Abs.,ExtBa=13.40
25/09/2019,12:43:26,TEMP=19.7,BA=5.60,STAT.D=Abs.,ExtBa=13.40
25/09/2019,12:58:28,TEMP=19.7,BA=5.60,STAT.F,ExtBa=13.50
25/09/2019,13:13:26,TEMP=19.1,BA=5.60,STAT.D=Abs.,ExtBa=13.30
25/09/2019,13:28:26,TEMP=19.1,BA=5.56,STAT.D=Abs.,ExtBa=13.40
25/09/2019,13:43:26,TEMP=19.4,BA=5.60,STAT.D=Abs.,ExtBa=13.50
25/09/2019,13:58:27,TEMP=19.1,BA=5.60,STAT.F,ExtBa=13.50
25/09/2019,14:13:26,TEMP=19.2,BA=5.60,STAT.D=Abs.,ExtBa=13.30
25/09/2019,14:28:26,TEMP=19.3,BA=5.60,STAT.D=Abs.,ExtBa=13.40
25/09/2019,14:43:25,TEMP=19.2,BA=5.60,STAT.D=Abs.,ExtBa=13.50
25/09/2019,14:58:27,TEMP=18.8,BA=5.60,STAT.F,ExtBa=13.50
25/09/2019,15:14:20,TEMP=18.9,BA=5.56,STAT.D=Abs.,ExtBa=12.90
25/09/2019,15:28:25,TEMP=18.2,BA=5.60,STAT.D=Abs.,ExtBa=13.30
25/09/2019,15:43:25,TEMP=18.0,BA=5.60,STAT.D=Abs.,ExtBa=13.40
25/09/2019,15:58:26,TEMP=18.1,BA=5.60,STAT.F,ExtBa=13.40
25/09/2019,16:14:40,TEMP=18.4,BA=5.56,STAT.B=Abs.,ExtBa=12.90
25/09/2019,16:38:43,TEMP=18.0,BA=5.60,STAT.B=Abs.,ExtBa=13.20
25/09/2019,16:52:51,TEMP=18.1,BA=5.60,STAT.A=Abs.,ExtBa=13.00
25/09/2019,17:04:14,TEMP=18.1,BA=5.60,STAT.A=Abs.,ExtBa=13.20
25/09/2019,17:13:38,TEMP=18.0,BA=5.60,STAT.A=Abs.,ExtBa=13.30
25/09/2019,17:21:32,TEMP=18.2,BA=5.60,STAT.A=Abs.,ExtBa=13.30
25/09/2019,17:28:17,TEMP=18.2,BA=5.60,STAT.C=Abs.,ExtBa=13.30
25/09/2019,17:45:17,TEMP=18.2,BA=5.56,STAT.A=Abs.,ExtBa=12.80
25/09/2019,17:47:23,TEMP=18.2,BA=5.56,STAT.A=Abs.,ExtBa=12.80
25/09/2019,17:49:22,TEMP=18.2,BA=5.56,STAT.A=Abs.,ExtBa=12.90
25/09/2019,17:51:21,TEMP=18.2,BA=5.56,STAT.A=Abs.,ExtBa=12.90
25/09/2019,17:53:22,TEMP=18.2,BA=5.56,STAT.B=Abs.,ExtBa=12.90
25/09/2019,18:04:16,TEMP=18.1,BA=5.52,STAT.A=Abs.,ExtBa=12.70
25/09/2019,18:06:15,TEMP=18.1,BA=5.52,STAT.A=Abs.,ExtBa=12.80
25/09/2019,18:09:39,TEMP=17.9,BA=5.52,STAT.A=Abs.,ExtBa=12.90
25/09/2019,18:13:41,TEMP=18.0,BA=5.56,STAT.A=Abs.,ExtBa=12.90
25/09/2019,18:17:05,TEMP=18.1,BA=5.56,STAT.A=Abs.,ExtBa=12.90
25/09/2019,18:19:59,TEMP=18.3,BA=5.56,STAT.A=Abs.,ExtBa=12.80